Regional Weather Roundup
Issued by NWS

Home | Current Version | Previous Version | Text Only | Print | Product List | Glossary On
Versions: 1 2 3 4 5 6 7 8 9 10 11 12 13 14 15 16 17 18 19 20 21 22 23 24 25 26 27 28 29 30 31 32 33 34 35 36 37 38 39 40 41 42 43 44 45 46 47 48 49 50
000
ASUS42 KTBW 040317
RWRFL
FLORIDA REGIONAL WEATHER ROUNDUP
NATIONAL WEATHER SERVICE TAMPA BAY RUSKIN FL
1100 PM EDT MON AUG 03 2015

NOTE: "FAIR" INDICATES FEW OR NO CLOUDS BELOW 12,000 FEET WITH NO
SIGNIFICANT WEATHER AND/OR OBSTRUCTIONS TO VISIBILITY.


FLZ001>010-012>015-112-114-115-040400-
PANHANDLE FLORIDA

CITY           SKY/WX    TMP DP  RH WIND       PRES   REMARKS
PENSACOLA      CLEAR     82  75  79 W9        29.91R
PENSACOLA NAS  PTCLDY    79  75  87 CALM      29.91R
MILTON NAS     PTCLDY    81  74  79 W7        29.92
CRESTVIEW      CLEAR     82  73  74 S3        29.93R
DUKE FIELD     PTCLDY    82  74  76 SW3       29.91R
VALPARAISO     PTCLDY    83  74  76 W2        29.91R
MARY ESTHER    CLEAR     84  73  69 SW1       29.91R
TRI COUNTY     FAIR      77  73  87 CALM      29.93
PANAMA CITY    FAIR      79  76  90 S3        29.92R
TYNDALL AFB    PTCLDY    84  78  82 W7        29.94R HX  95
APALACHICOLA   MOCLDY    86  78  77 W5        29.95R HX  98

STATION/POSITION SKY/WX   TEMP    WIND        PRES    WAVE   SWELL
                          AIR SEA DIR/SP/G            HT/PER HT/PER
                          (F)     (DEG/KT/KT) (MB)    (FT/S) (FT/S)
30.1N   87.6W              85 87  240/ 10/ 12 1012.3R   3/ 6   2/ 6
29.2N   88.2W              84 86  260/ 12/ 14 1013.6R   3/ 6   2/ 6
28.8N   86.0W              84 86  270/ 14/ 16 1014.3R   4/ 5
PANAMA CITY BEAC           85 87  270/ 15/ 17 1012.3R
CAPE SAN BLAS    NOT AVBL
TOWER C                    84     290/  9/ 10 1014.5R
28.5N   84.5W              85 84  250/ 14/ 16 1014.8R   4/ 6

$$
FLZ011-016>038-118-127-128-134-139-239-040400-
NORTH FLORIDA

CITY           SKY/WX    TMP DP  RH WIND       PRES   REMARKS
MARIANNA       CLEAR     83  74  74 CALM      29.92R
TALLAHASSEE    PTCLDY    82  74  76 CALM      29.93R
PERRY          CLEAR     76  76 100 CALM      29.94S
CROSS CITY       N/A     79  76  90 S5        29.95R
LAKE CITY      DRIZZLE   77  73  88 W6        29.95R
GAINESVILLE    TSTM      74  72  93 MISG      29.97R
MAYPORT NAS    CLOUDY    78  76  93 SW9       29.93R
JACKSONVILLE   TSTM      78  77  96 SW3       29.93R
JAX NAS        CLOUDY    81  75  82 SE6       29.95R
JAX CRAIG      CLOUDY    78  76  93 S6        29.94R
JAX CECIL      PTCLDY    77  75  94 SW3       29.93R
FERNANDINA BEA CLOUDY    81  77  89 SW9       29.91R
ST AUGUSTINE   LGT RAIN  77  75  93 SW6       29.97R

STATION/POSITION SKY/WX   TEMP    WIND        PRES    WAVE   SWELL
                          AIR SEA DIR/SP/G            HT/PER HT/PER
                          (F)     (DEG/KT/KT) (MB)    (FT/S) (FT/S)
SHELL POINT                82     240/  8/ 10   N/A
KEATON BEACH               84     250/ 16/ 19 1014.2R
CEDAR KEY                  83     250/  7/ 10 1015.1R
FERNANDINA                 79 83  190/  7/ 11 1012.1R
30.7N   81.3W                 82                N/A     4/ 6
MAYPORT                    78 83  200/  8/ 12 1013.2R
31.4N   80.9W              81 83  210/ 17/ 19 1012.2R   5/ 7   2/11
ST AUGUSTINE               76 78  240/  9/ 13 1015.2R

$$
FLZ040-043>046-052-053-057-058-063-144-040400-
INTERIOR CENTRAL FLORIDA

CITY           SKY/WX    TMP DP  RH WIND       PRES   REMARKS
OCALA          CLOUDY    75  72  88 SW6       29.99R
THE VILLAGES     N/A     79  79 100 CALM      29.90R
LEESBURG       CLOUDY    78  73  84 CALM      30.00R
SANFORD        CLOUDY    79  71  76 S6        29.99R
ORLANDO EXEC   CLOUDY    79  73  82 SW8       30.00R
ORLANDO INTL   CLOUDY    79  75  89 S9        30.01R
WINTER HAVEN   MOCLDY    77  72  84 S6        30.02R
LAKELAND       MOCLDY    73  72  94 SW5       30.01S
BARTOW         FAIR      73  73 100 CALM      30.02R
OKEECHOBEE       N/A     73  72  94 CALM      30.04R

$$
FLZ041-047-054-059-064-141-147-040400-
EAST CENTRAL FLORIDA

CITY           SKY/WX    TMP DP  RH WIND       PRES   REMARKS
DAYTONA BEACH  CLOUDY    79  72  79 SW10      29.99R
DELAND           N/A     77  73  88 CALM      30.01R
JFK SPACE CTR  CLOUDY    79  73  82 S9        30.00R
CAPE CANAVERAL CLOUDY    78  72  82 S5        30.00R
PATRICK AFB    MOCLDY    79  73  82 S7        30.01R
MELBOURNE      MOCLDY    78  72  81 S3        30.01R
VERO BEACH     PTCLDY    78  71  79 SW6       30.03R
FT PIERCE      PTCLDY    75  71  87 CALM      30.03R
STUART           N/A     77  72  83 W3        30.04S

STATION/POSITION SKY/WX   TEMP    WIND        PRES    WAVE   SWELL
                          AIR SEA DIR/SP/G            HT/PER HT/PER
                          (F)     (DEG/KT/KT) (MB)    (FT/S) (FT/S)
28.5N   80.2W              80 81  180/ 12/ 14 1016.0R
28.9N   78.5W              84 84  190/ 16/ 17 1016.1R
TRIDENT PIER               80 78  190/  6/  9 1016.2R
28.4N   80.5W                 77                N/A     1/11
27.5N   80.2W                 79                N/A     1/ 8

$$
FLZ050-056-061-142-242-148-248-149-249-151-251-155-255-
160-260-040400-
WEST CENTRAL FLORIDA

CITY           SKY/WX    TMP DP  RH WIND       PRES   REMARKS
CRYSTAL RIVER  MOCLDY    79  73  83 NW3       29.99R THUNDER
INVERNESS      FAIR      79  77  94 SW3       29.99R
BROOKSVILLE    CLOUDY    77  74  90 SW6       30.00R
ZEPHYRHILLS    FAIR      73  73 100 CALM      30.01R
CLEARWATER     MOCLDY    80  77  90 SW6       30.00R
TAMPA INTL     MOCLDY    79  76  90 S6        30.01R
TAMPA EXEC       N/A    N/A N/A N/A MISG        N/A
PLANT CITY     MOCLDY    77  75  94 SW3       30.03R
MACDILL AFB    PTCLDY    79  79 100 SW6       30.00R
PETER O KNIGHT MOCLDY    81  77  89 SW5       30.01R
ST PETERSBURG  MOCLDY    81  75  82 SW5       29.99R
SARASOTA       PTCLDY    81  74  79 W7        30.00R
VENICE         NOT AVBL

STATION/POSITION SKY/WX   TEMP    WIND        PRES    WAVE   SWELL
                          AIR SEA DIR/SP/G            HT/PER HT/PER
                          (F)     (DEG/KT/KT) (MB)    (FT/S) (FT/S)
CEDAR KEY                  83     250/  7/ 10 1015.1R
28.5N   84.5W              85 84  250/ 14/ 16 1014.8R   4/ 6
27.3N   84.2W                 84                N/A     3/ 6
CLEARWATER BEACH           82 80  230/ 13/ 15 1015.6R
MIDDLE TAMPA BAY           82     240/ 10/ 12 1015.8R
VENICE                     84 83  230/  8/  9 1015.4R

$$
FLZ066-069-070-075>078-162-262-165-265-040400-
SOUTHWEST FLORIDA AND KEYS

CITY           SKY/WX    TMP DP  RH WIND       PRES   REMARKS
PUNTA GORDA    PTCLDY    77  75  93 CALM      30.03R
FT MYERS       MOCLDY    80  70  71 CALM      30.01R
SOUTHWEST INTL MOCLDY    80  69  69 S5        30.02R
NAPLES         PTCLDY    82  73  74 SE6       30.02R
MARCO ISLAND   CLOUDY    81  72  74 E5        30.03R
MARATHON       CLEAR     84  71  65 E6        30.02S
KEY WEST NAS   CLEAR     82  74  76 E6        30.02R
KEY WEST INTL  CLEAR     80  75  84 E5        30.02R

STATION/POSITION SKY/WX   TEMP    WIND        PRES    WAVE   SWELL
                          AIR SEA DIR/SP/G            HT/PER HT/PER
                          (F)     (DEG/KT/KT) (MB)    (FT/S) (FT/S)
VENICE                     84 83  230/  8/  9 1015.4R
NAPLES                        86              1017.0R
26.0N   85.6W              83 83  170/  8/  8 1015.5R   1/ 5   2/ 5
DRY TORTUGAS               83     100/ 10/ 12 1015.8R
NW FL BAY                  83      80/  9/ 11 1016.5
SAND KEY                   84        CALM     1016.5R
SOMBRERO KEY               84      60/  8/  9 1017.3R
LONG KEY                   83 88   30/  8/  9 1017.6R
MOLASSES REEF              82 87  360/  6/  7 1016.9R

$$
FLZ067-068-071>074-168-172>174-040400-
SOUTHEAST FLORIDA

CITY           SKY/WX    TMP DP  RH WIND       PRES   REMARKS
W PALM BEACH   PTCLDY    77  73  87 S3        30.04R
FT LAUDER-EXEC CLEAR     78  74  87 CALM      30.04R
FT LAUDERDALE  MOCLDY    79  74  84 W3        30.03R
POMPANO BEACH  CLEAR     78  72  81 CALM      30.04R
PEMBROKE PINES CLEAR     77  73  87 CALM      30.05R
OPA LOCKA      CLEAR     78  73  84 CALM      30.04R
MIAMI          PTCLDY    80  72  76 CALM      30.04R
WEST KENDALL   CLEAR     75  73  93 CALM      30.04R
HOMESTEAD      CLEAR     77  73  86 CALM      30.04R

STATION/POSITION SKY/WX   TEMP    WIND        PRES    WAVE   SWELL
                          AIR SEA DIR/SP/G            HT/PER HT/PER
                          (F)     (DEG/KT/KT) (MB)    (FT/S) (FT/S)
PORT EVERGLADES            81     290/  3/  4 1016.5R
VIRGINIA KEY               81 87   10/  1/  2 1016.4R
LAKE WORTH                 80 84  230/  3/  5 1016.2R
SETTLEMENT POINT           83     210/  9/ 10 1017.9R

$$



USA.gov is the U.S. government's official web portal to all federal, state and local government web resources and services.